Location: ???? ???? ?????
(31.2680°N, 31.7283°E)
Time: 03:48:27
(UTC+00:00)

CZ-4C R/B - Pass Details

Date: 13 July 2020
Orbit: 632 x 1370 km, 63.4° (Epoch: 11 August)

Event Time Altitude Azimuth Distance (km) Brightness Sun altitude
Rises 20:45:37 0° 338° (NNW) 3,948 6.7 -34.2°
Reaches altitude 10° 20:48:23 10° 346° (NNW) 3,088 5.9 -34.4°
Maximum altitude 20:55:29 41° 55° (NE) 1,788 3.8 -34.9°
Enters shadow 20:56:16 40° 68° (ENE) 1,824 3.8 -35.0°
